Strona główna
METAR-TAF:

METAR-TAF

Lotnisko :

United States Naval Academy

Annapolis, Maryland, Stany Zjednoczone

Szerokość geograficzna: 38-59-29N, Długość geograficzna: 076-29-00W, wysokość: 2 m

Aktualna obserwacja pogody

Raport powstał 55 minut temu, godzina 18:54 UTC
Wiatr 9 kt od południowy wschód
Temperatura 7°C
Wilgotność 61%
Ciśnienie 1030 hPa
Widzialność: 16.1 km
bezchmurnie

METAR: KNAK 081854Z AUTO 14009KT 10SM CLR 07/00 A3042 RMK AO2 SLP303 T00670000

czas: 14:49 (19:49 UTC)


TAF: brakujący

Obserwacja i prognoza pogody dla ponad 4000 lotnisk (raport METAR i TAF).

Dostępne stacje oznaczono żółtymi i czerwonymi punktami na mapie.

Najedź kursorem aby zobaczyć nazwę stacji.

Kliknij aby zobaczyć obserwacje i prognozy pogody.

Aby zmienić mapę: kliknij na zielony przycisk z czarnym krzyżykiem, aby powiększyć; na zielony przycisk z myślnikiem, aby pomniejszyć; na zielone strzałki, aby przejść do map sąsiednich.


METAR-TAF: